Location: Moscow
(55.7500°N, 37.5830°E)
Time: 15:10:06
(UTC+03:00)

Vanguard 1 - Pass Details

Date: 04 December 2021
Orbit: 652 x 3830 km, 34.2° (Epoch: 25 January)

Event Time Altitude Azimuth Distance (km) Brightness Sun altitude
Exits shadow 06:16:20 14° 254° (WSW) 6,108 13.6 -18.7°
Maximum altitude 06:25:57 21° 222° (SW) 4,874 13.3 -17.4°
Drops below altitude 10° 06:35:23 10° 181° (S) 4,803 13.8 -16.1°
Sets 06:39:46 0° 166° (SSE) 5,300 14.3 -15.5°
